Weather History for KM25 - August, 2014

Change the Weather History Date:

Monday, August 11, 2014

  Actual Average (KPAH) Record (KPAH)
Temperature  
Mean Temperature 78 °F 78 °F  
Max Temperature 84 °F 90 °F 102 °F (1941)
Min Temperature 71 °F 67 °F 54 °F (1967)
Degree Days  
Heating Degree Days 0 0  
Month to date heating degree days 0  
Since 1 June heating degree days 4  
Since 1 July heating degree days 0  
Cooling Degree Days 12 13  
Month to date cooling degree days 144  
Year to date cooling degree days 1067  
Since 1 June cooling degree days 895  
Growing Degree Days 28 (Base 50)    
Moisture  
Dew Point 71 °F    
Average Humidity 83    
Maximum Humidity 100    
Minimum Humidity 62    
Precipitation  
Precipitation 0.00 in 0.09 in 3.16 in (1952)
Month to date precipitation 1.08  
Year to date precipitation 30.80  
Snow  
Snow 0.00 in 0.00 in 0.00 in (2002)
Month to date snowfall 0.0  
Since 1 June snowfall 0.0  
Since 1 July snowfall 0.0  
Snow Depth -    
Sea Level Pressure  
Sea Level Pressure 29.92 in    
Wind  
Wind Speed 5 mph (WNW)    
Max Wind Speed 18 mph    
Max Gust Speed 23 mph    
Visibility 9 miles    
Events Rain    
T = Trace of Precipitation, MM = Missing Value Source: NWS Daily Summary

Daily Weather History Graph

Daily Weather History Graph

Search for Another Location

Airport or City:

Trip Planner

Search our weather history database for the weather conditions in past years. The results will help you decide how hot, cold, wet, or windy it might be!

Date:

Astronomy

Aug. 11, 2014 Rise Set
Actual Time 6:08 AM CDT 7:50 PM CDT
Civil Twilight 5:40 AM CDT 8:17 PM CDT
Nautical Twilight 5:06 AM CDT 8:51 PM CDT
Astronomical Twilight 4:31 AM CDT 9:26 PM CDT
Moon 8:22 PM CDT (8/11) 7:10 AM CDT (8/11)
Length of Visible Light 14h 37m
Length of Day
13h 41m
Full, 99% of the Moon is Illuminated
Aug 11
Full
Aug 17
Last Quarter
Aug 25
New
Sep 2
First Quarter
Sep 8
Full

Hourly Weather History & Observations

Time (CDT) Temp. Heat Index Dew Point Humidity Pressure Visibility Wind Dir Wind Speed Gust Speed Precip Events Conditions
12:35 AM 75.2 °F - 71.6 °F 89% 29.96 in 10.0 mi SSE 4.6 mph - N/A   Overcast
12:55 AM 75.2 °F - 71.6 °F 89% 29.96 in 10.0 mi SE 3.5 mph - N/A   Scattered Clouds
1:15 AM 73.4 °F - 71.6 °F 94% 29.95 in 7.0 mi Calm Calm - N/A   Clear
1:35 AM 73.4 °F - 71.6 °F 94% 29.94 in 7.0 mi SSE 4.6 mph - N/A   Mostly Cloudy
1:55 AM 73.4 °F - 71.6 °F 94% 29.93 in 10.0 mi South 5.8 mph - N/A   Mostly Cloudy
2:15 AM 75.2 °F - 71.6 °F 89% 29.92 in 10.0 mi South 3.5 mph - N/A   Scattered Clouds
2:35 AM 75.2 °F - 71.6 °F 89% 29.92 in 10.0 mi Calm Calm - N/A   Mostly Cloudy
2:55 AM 75.2 °F - 71.6 °F 89% 29.92 in 10.0 mi Calm Calm - N/A Rain Light Rain
3:15 AM 75.2 °F - 71.6 °F 89% 29.92 in 7.0 mi Calm Calm - N/A Rain Light Rain
3:35 AM 75.2 °F - 73.4 °F 94% 29.94 in 7.0 mi WSW 18.4 mph 23.0 mph N/A Rain Light Rain
4:15 AM 73.4 °F - 71.6 °F 94% 29.91 in 10.0 mi SSW 3.5 mph - N/A Rain Light Rain
4:35 AM 71.6 °F - 71.6 °F 100% 29.92 in 10.0 mi West 4.6 mph - N/A   Scattered Clouds
4:55 AM 73.4 °F - 71.6 °F 94% 29.92 in 10.0 mi Calm Calm - N/A Rain Rain
5:15 AM 73.4 °F - 71.6 °F 94% 29.90 in 10.0 mi WNW 3.5 mph - N/A   Scattered Clouds
5:35 AM 73.4 °F - 71.6 °F 94% 29.90 in 10.0 mi Calm Calm - N/A   Scattered Clouds
5:55 AM 71.6 °F - 71.6 °F 100% 29.92 in 5.0 mi Calm Calm - N/A   Scattered Clouds
6:15 AM 71.6 °F - 69.8 °F 94% 29.92 in 5.0 mi Calm Calm - N/A   Scattered Clouds
6:35 AM 71.6 °F - 69.8 °F 94% 29.93 in 5.0 mi Calm Calm - N/A   Scattered Clouds
6:55 AM 71.6 °F - 69.8 °F 94% 29.93 in 5.0 mi Calm Calm - N/A   Mostly Cloudy
7:15 AM 71.6 °F - 71.6 °F 100% 29.93 in 7.0 mi Calm Calm - N/A   Overcast
7:35 AM 71.6 °F - 71.6 °F 100% 29.94 in 10.0 mi Calm Calm - N/A   Overcast
7:55 AM 71.6 °F - 71.6 °F 100% 29.94 in 10.0 mi Calm Calm - N/A   Overcast
8:15 AM 73.4 °F - 71.6 °F 94% 29.94 in 10.0 mi WSW 3.5 mph - N/A   Overcast
8:35 AM 73.4 °F - 71.6 °F 94% 29.94 in 10.0 mi WSW 3.5 mph - N/A   Overcast
8:55 AM 75.2 °F - 71.6 °F 89% 29.94 in 10.0 mi WNW 3.5 mph - N/A   Overcast
9:15 AM 75.2 °F - 71.6 °F 89% 29.94 in 10.0 mi West 3.5 mph - N/A   Overcast
9:35 AM 77.0 °F - 71.6 °F 83% 29.94 in 10.0 mi West 5.8 mph - N/A   Overcast
9:55 AM 77.0 °F - 71.6 °F 83% 29.94 in 10.0 mi WSW 5.8 mph - N/A   Overcast
10:15 AM 77.0 °F - 71.6 °F 83% 29.93 in 10.0 mi West 6.9 mph - N/A   Overcast
10:35 AM 78.8 °F - 71.6 °F 78% 29.94 in 10.0 mi West 8.1 mph - N/A   Overcast
10:55 AM 78.8 °F - 71.6 °F 78% 29.94 in 10.0 mi West 6.9 mph - N/A   Overcast
11:15 AM 78.8 °F - 71.6 °F 78% 29.94 in 10.0 mi West 6.9 mph - N/A   Overcast
11:35 AM 78.8 °F - 71.6 °F 78% 29.94 in 10.0 mi West 6.9 mph - N/A   Overcast
11:55 AM 80.6 °F 84.6 °F 71.6 °F 74% 29.94 in 10.0 mi West 4.6 mph - N/A   Overcast
12:15 PM 78.8 °F - 73.4 °F 83% 29.93 in 10.0 mi West 8.1 mph - N/A   Light Drizzle
12:35 PM 80.6 °F 84.6 °F 71.6 °F 74% 29.93 in 10.0 mi West 9.2 mph - N/A   Mostly Cloudy
12:55 PM 82.4 °F 88.2 °F 73.4 °F 74% 29.93 in 10.0 mi West 8.1 mph - N/A   Mostly Cloudy
1:15 PM 84.2 °F 89.6 °F 71.6 °F 66% 29.92 in 10.0 mi West 10.4 mph - N/A   Scattered Clouds
1:35 PM 84.2 °F 89.6 °F 71.6 °F 66% 29.92 in 10.0 mi West 11.5 mph - N/A   Scattered Clouds
1:55 PM 82.4 °F 88.2 °F 73.4 °F 74% 29.91 in 10.0 mi NNW 13.8 mph - N/A   Mostly Cloudy
2:15 PM 82.4 °F 88.2 °F 73.4 °F 74% 29.91 in 10.0 mi NW 12.7 mph - N/A   Mostly Cloudy
2:35 PM 82.4 °F 87.2 °F 71.6 °F 70% 29.90 in 10.0 mi NNW 12.7 mph 19.6 mph N/A   Scattered Clouds
2:55 PM 84.2 °F 88.4 °F 69.8 °F 62% 29.90 in 10.0 mi NW 15.0 mph 21.9 mph N/A   Scattered Clouds
4:15 PM 84.2 °F 88.4 °F 69.8 °F 62% 29.88 in 10.0 mi NNW 12.7 mph - N/A   Scattered Clouds
4:35 PM 84.2 °F 88.4 °F 69.8 °F 62% 29.88 in 10.0 mi NW 13.8 mph 19.6 mph N/A   Scattered Clouds
5:15 PM 84.2 °F 88.4 °F 69.8 °F 62% 29.88 in 10.0 mi NW 12.7 mph 18.4 mph N/A   Scattered Clouds
5:35 PM 82.4 °F 86.3 °F 69.8 °F 66% 29.88 in 10.0 mi NW 11.5 mph 20.7 mph N/A   Clear
5:55 PM 82.4 °F 86.3 °F 69.8 °F 66% 29.88 in 10.0 mi North 11.5 mph - N/A   Clear
6:15 PM 82.4 °F 85.4 °F 68.0 °F 62% 29.88 in 10.0 mi NNW 13.8 mph - N/A   Clear
6:35 PM 82.4 °F 85.4 °F 68.0 °F 62% 29.88 in 10.0 mi NNW 10.4 mph - N/A   Clear
6:55 PM 80.6 °F 83.9 °F 69.8 °F 70% 29.89 in 10.0 mi NW 8.1 mph - N/A   Clear
7:15 PM 80.6 °F 83.9 °F 69.8 °F 70% 29.90 in 10.0 mi NW 6.9 mph - N/A   Clear
7:35 PM 80.6 °F 83.9 °F 69.8 °F 70% 29.90 in 10.0 mi NW 4.6 mph - N/A   Clear
7:55 PM 78.8 °F - 69.8 °F 74% 29.90 in 10.0 mi Calm Calm - N/A   Scattered Clouds
8:15 PM 78.8 °F - 69.8 °F 74% 29.90 in 10.0 mi Calm Calm - N/A   Scattered Clouds
8:35 PM 75.2 °F - 69.8 °F 83% 29.91 in 10.0 mi Calm Calm - N/A   Clear
8:55 PM 73.4 °F - 69.8 °F 88% 29.91 in 10.0 mi Calm Calm - N/A   Clear
9:15 PM 73.4 °F - 69.8 °F 88% 29.92 in 10.0 mi Calm Calm - N/A   Clear
10:15 PM 73.4 °F - 69.8 °F 88% 29.93 in 10.0 mi WNW 3.5 mph - N/A   Clear
10:35 PM 73.4 °F - 69.8 °F 88% 29.93 in 10.0 mi NW 5.8 mph - N/A   Clear
11:15 PM 73.4 °F - 69.8 °F 88% 29.93 in 10.0 mi WNW 4.6 mph - N/A   Clear
11:35 PM 73.4 °F - 69.8 °F 88% 29.93 in 10.0 mi NW 3.5 mph - N/A   Clear
11:55 PM 73.4 °F - 69.8 °F 88% 29.93 in 10.0 mi WNW 3.5 mph - N/A   Clear